owner,sensor,date,latitude,longitude,vertical_datum,wind_speed,wind_to_direction,wind_speed_of_gust,qcFlag 
SCCF RECON,ioos:station:SCCF:53:1,2014-10-01T00:00:00Z,26.6493,-81.8810,2.11,1.6,316.3,-9999.0,'1111122,1111122,1111122' 
SCCF RECON,ioos:station:SCCF:53:1,2014-10-01T00:15:00Z,26.6493,-81.8810,2.11,1.4,286.8,-9999.0,'1111122,1111122,1111122' 
SCCF RECON,ioos:station:SCCF:53:1,2014-10-01T00:30:00Z,26.6493,-81.8810,2.11,0.6,230.9,-9999.0,'1111122,1111122,1111122' 
SCCF RECON,ioos:station:SCCF:53:1,2014-10-01T00:45:00Z,26.6493,-81.8810,2.11,0.4,177.7,-9999.0,'1111122,1111122,1111122' 
SCCF RECON,ioos:station:SCCF:53:1,2014-10-01T01:00:00Z,26.6493,-81.8810,2.11,-9999.0,114.9,-9999.0,'1111122,1111122,1111122' 
SCCF RECON,ioos:station:SCCF:53:1,2014-10-01T01:15:00Z,26.6493,-81.8810,2.11,1.4,163.0,-9999.0,'1111122,1111122,1111122' 
SCCF RECON,ioos:station:SCCF:53:1,2014-10-01T01:30:00Z,26.6493,-81.8810,2.11,1.2,159.9,-9999.0,'1111122,1111122,1111122' 
SCCF RECON,ioos:station:SCCF:53:1,2014-10-01T01:45:00Z,26.6493,-81.8810,2.11,0.7,128.7,-9999.0,'1111122,1111122,1111122' 
SCCF RECON,ioos:station:SCCF:53:1,2014-10-01T02:00:00Z,26.6493,-81.8810,2.11,1.4,145.0,-9999.0,'1111122,1111122,1111122' 
SCCF RECON,ioos:station:SCCF:53:1,2014-10-01T02:15:00Z,26.6493,-81.8810,2.11,2.2,163.0,-9999.0,'1111122,1111122,1111122' 
SCCF RECON,ioos:station:SCCF:53:1,2014-10-01T02:30:00Z,26.6493,-81.8810,2.11,2.2,310.4,-9999.0,'1111122,1111122,1111122' 
SCCF RECON,ioos:station:SCCF:53:1,2014-10-01T02:45:00Z,26.6493,-81.8810,2.11,0.9,328.8,-9999.0,'1111122,1111122,1111122' 
SCCF RECON,ioos:station:SCCF:53:1,2014-10-01T03:00:00Z,26.6493,-81.8810,2.11,0.3,333.5,-9999.0,'1111122,1111122,1111122' 
SCCF RECON,ioos:station:SCCF:53:1,2014-10-01T03:15:00Z,26.6493,-81.8810,2.11,1.3,136.6,-9999.0,'1111122,1111122,1111122' 
SCCF RECON,ioos:station:SCCF:53:1,2014-10-01T03:30:00Z,26.6493,-81.8810,2.11,1.5,143.1,-9999.0,'1111122,1111122,1111122' 
SCCF RECON,ioos:station:SCCF:53:1,2014-10-01T03:45:00Z,26.6493,-81.8810,2.11,1.6,131.9,-9999.0,'1111122,1111122,1111122' 
SCCF RECON,ioos:station:SCCF:53:1,2014-10-01T04:00:00Z,26.6493,-81.8810,2.11,1.5,140.4,-9999.0,'1111122,1111122,1111122' 
SCCF RECON,ioos:station:SCCF:53:1,2014-10-01T04:15:00Z,26.6493,-81.8810,2.11,2.5,157.2,-9999.0,'1111122,1111122,1111122' 
SCCF RECON,ioos:station:SCCF:53:1,2014-10-01T04:30:00Z,26.6493,-81.8810,2.11,2.2,185.2,-9999.0,'1111122,1111122,1111122' 
SCCF RECON,ioos:station:SCCF:53:1,2014-10-01T04:45:00Z,26.6493,-81.8810,2.11,0.3,176.6,-9999.0,'1111122,1111122,1111122' 
SCCF RECON,ioos:station:SCCF:53:1,2014-10-01T05:00:00Z,26.6493,-81.8810,2.11,0.7,156.1,-9999.0,'1111122,1111122,1111122' 
SCCF RECON,ioos:station:SCCF:53:1,2014-10-01T05:15:00Z,26.6493,-81.8810,2.11,1.5,157.2,-9999.0,'1111122,1111122,1111122' 
SCCF RECON,ioos:station:SCCF:53:1,2014-10-01T05:30:00Z,26.6493,-81.8810,2.11,0.9,170.8,-9999.0,'1111122,1111122,1111122' 
SCCF RECON,ioos:station:SCCF:53:1,2014-10-01T05:45:00Z,26.6493,-81.8810,2.11,2.6,203.6,-9999.0,'1111122,1111122,1111122' 
SCCF RECON,ioos:station:SCCF:53:1,2014-10-01T06:00:00Z,26.6493,-81.8810,2.11,2.5,273.8,-9999.0,'1111122,1111122,1111122' 
SCCF RECON,ioos:station:SCCF:53:1,2014-10-01T06:15:00Z,26.6493,-81.8810,2.11,1.4,148.4,-9999.0,'1111122,1111122,1111122' 
SCCF RECON,ioos:station:SCCF:53:1,2014-10-01T06:30:00Z,26.6493,-81.8810,2.11,1.1,181.0,-9999.0,'1111122,1111122,1111122' 
SCCF RECON,ioos:station:SCCF:53:1,2014-10-01T06:45:00Z,26.6493,-81.8810,2.11,1.0,147.7,-9999.0,'1111122,1111122,1111122' 
SCCF RECON,ioos:station:SCCF:53:1,2014-10-01T07:00:00Z,26.6493,-81.8810,2.11,1.6,146.8,-9999.0,'1111122,1111122,1111122' 
SCCF RECON,ioos:station:SCCF:53:1,2014-10-01T07:15:00Z,26.6493,-81.8810,2.11,1.0,127.1,-9999.0,'1111122,1111122,1111122' 
SCCF RECON,ioos:station:SCCF:53:1,2014-10-01T07:30:00Z,26.6493,-81.8810,2.11,1.0,167.2,-9999.0,'1111122,1111122,1111122' 
SCCF RECON,ioos:station:SCCF:53:1,2014-10-01T07:45:00Z,26.6493,-81.8810,2.11,1.3,179.5,-9999.0,'1111122,1111122,1111122' 
SCCF RECON,ioos:station:SCCF:53:1,2014-10-01T08:00:00Z,26.6493,-81.8810,2.11,2.3,253.1,-9999.0,'1111122,1111122,1111122' 
SCCF RECON,ioos:station:SCCF:53:1,2014-10-01T08:15:00Z,26.6493,-81.8810,2.11,2.1,228.1,-9999.0,'1111122,1111122,1111122' 
SCCF RECON,ioos:station:SCCF:53:1,2014-10-01T08:30:00Z,26.6493,-81.8810,2.11,1.9,237.0,-9999.0,'1111122,1111122,1111122' 
SCCF RECON,ioos:station:SCCF:53:1,2014-10-01T08:45:00Z,26.6493,-81.8810,2.11,2.8,221.0,-9999.0,'1111122,1111122,1111122' 
SCCF RECON,ioos:station:SCCF:53:1,2014-10-01T09:00:00Z,26.6493,-81.8810,2.11,2.9,209.2,-9999.0,'1111122,1111122,1111122' 
SCCF RECON,ioos:station:SCCF:53:1,2014-10-01T09:15:00Z,26.6493,-81.8810,2.11,3.0,225.8,-9999.0,'1111122,1111122,1111122' 
SCCF RECON,ioos:station:SCCF:53:1,2014-10-01T09:30:00Z,26.6493,-81.8810,2.11,2.5,236.9,-9999.0,'1111122,1111122,1111122' 
SCCF RECON,ioos:station:SCCF:53:1,2014-10-01T09:45:00Z,26.6493,-81.8810,2.11,2.6,237.0,-9999.0,'1111122,1111122,1111122' 
SCCF RECON,ioos:station:SCCF:53:1,2014-10-01T10:00:00Z,26.6493,-81.8810,2.11,3.0,227.7,-9999.0,'1111122,1111122,1111122' 
SCCF RECON,ioos:station:SCCF:53:1,2014-10-01T10:15:00Z,26.6493,-81.8810,2.11,3.7,217.3,-9999.0,'1111122,1111122,1111122' 
SCCF RECON,ioos:station:SCCF:53:1,2014-10-01T10:30:00Z,26.6493,-81.8810,2.11,3.0,215.5,-9999.0,'1111122,1111122,1111122' 
SCCF RECON,ioos:station:SCCF:53:1,2014-10-01T10:45:00Z,26.6493,-81.8810,2.11,2.0,160.7,-9999.0,'1111122,1111122,1111122' 
SCCF RECON,ioos:station:SCCF:53:1,2014-10-01T11:00:00Z,26.6493,-81.8810,2.11,2.8,267.7,-9999.0,'1111122,1111122,1111122' 
SCCF RECON,ioos:station:SCCF:53:1,2014-10-01T11:15:00Z,26.6493,-81.8810,2.11,2.6,231.2,-9999.0,'1111122,1111122,1111122' 
SCCF RECON,ioos:station:SCCF:53:1,2014-10-01T11:30:00Z,26.6493,-81.8810,2.11,4.4,219.5,-9999.0,'1111122,1111122,1111122' 
SCCF RECON,ioos:station:SCCF:53:1,2014-10-01T11:45:00Z,26.6493,-81.8810,2.11,4.0,237.2,-9999.0,'1111122,1111122,1111122' 
SCCF RECON,ioos:station:SCCF:53:1,2014-10-01T12:00:00Z,26.6493,-81.8810,2.11,2.2,268.0,-9999.0,'1111122,1111122,1111122' 
SCCF RECON,ioos:station:SCCF:53:1,2014-10-01T12:15:00Z,26.6493,-81.8810,2.11,0.8,323.1,-9999.0,'1111122,1111122,1111122' 
SCCF RECON,ioos:station:SCCF:53:1,2014-10-01T12:30:00Z,26.6493,-81.8810,2.11,0.9,272.2,-9999.0,'1111122,1111122,1111122' 
SCCF RECON,ioos:station:SCCF:53:1,2014-10-01T12:45:00Z,26.6493,-81.8810,2.11,1.3,306.2,-9999.0,'1111122,1111122,1111122' 
SCCF RECON,ioos:station:SCCF:53:1,2014-10-01T13:00:00Z,26.6493,-81.8810,2.11,1.4,293.4,-9999.0,'1111122,1111122,1111122' 
SCCF RECON,ioos:station:SCCF:53:1,2014-10-01T13:15:00Z,26.6493,-81.8810,2.11,3.1,268.8,-9999.0,'1111122,1111122,1111122' 
SCCF RECON,ioos:station:SCCF:53:1,2014-10-01T13:30:00Z,26.6493,-81.8810,2.11,1.5,316.7,-9999.0,'1111122,1111122,1111122' 
SCCF RECON,ioos:station:SCCF:53:1,2014-10-01T13:45:00Z,26.6493,-81.8810,2.11,2.7,286.3,-9999.0,'1111122,1111122,1111122' 
SCCF RECON,ioos:station:SCCF:53:1,2014-10-01T14:00:00Z,26.6493,-81.8810,2.11,2.6,259.6,-9999.0,'1111122,1111122,1111122' 
SCCF RECON,ioos:station:SCCF:53:1,2014-10-01T14:15:00Z,26.6493,-81.8810,2.11,3.8,257.5,-9999.0,'1111122,1111122,1111122' 
SCCF RECON,ioos:station:SCCF:53:1,2014-10-01T14:30:00Z,26.6493,-81.8810,2.11,4.1,248.7,-9999.0,'1111122,1111122,1111122' 
SCCF RECON,ioos:station:SCCF:53:1,2014-10-01T14:45:00Z,26.6493,-81.8810,2.11,3.5,275.3,-9999.0,'1111122,1111122,1111122' 
SCCF RECON,ioos:station:SCCF:53:1,2014-10-01T15:00:00Z,26.6493,-81.8810,2.11,3.5,272.8,-9999.0,'1111122,1111122,1111122' 
SCCF RECON,ioos:station:SCCF:53:1,2014-10-01T15:15:00Z,26.6493,-81.8810,2.11,4.1,264.7,-9999.0,'1111122,1111122,1111122' 
SCCF RECON,ioos:station:SCCF:53:1,2014-10-01T15:30:00Z,26.6493,-81.8810,2.11,5.0,272.1,-9999.0,'1111122,1111122,1111122' 
SCCF RECON,ioos:station:SCCF:53:1,2014-10-01T15:45:00Z,26.6493,-81.8810,2.11,3.7,239.6,-9999.0,'1111122,1111122,1111122' 
SCCF RECON,ioos:station:SCCF:53:1,2014-10-01T16:00:00Z,26.6493,-81.8810,2.11,5.0,258.1,-9999.0,'1111122,1111122,1111122' 
SCCF RECON,ioos:station:SCCF:53:1,2014-10-01T16:15:00Z,26.6493,-81.8810,2.11,3.9,271.5,-9999.0,'1111122,1111122,1111122' 
SCCF RECON,ioos:station:SCCF:53:1,2014-10-01T16:30:00Z,26.6493,-81.8810,2.11,3.0,265.8,-9999.0,'1111122,1111122,1111122' 
SCCF RECON,ioos:station:SCCF:53:1,2014-10-01T16:45:00Z,26.6493,-81.8810,2.11,4.0,239.9,-9999.0,'1111122,1111122,1111122' 
SCCF RECON,ioos:station:SCCF:53:1,2014-10-01T17:00:00Z,26.6493,-81.8810,2.11,5.2,249.1,-9999.0,'1111122,1111122,1111122' 
SCCF RECON,ioos:station:SCCF:53:1,2014-10-01T17:15:00Z,26.6493,-81.8810,2.11,4.4,264.5,-9999.0,'1111122,1111122,1111122' 
SCCF RECON,ioos:station:SCCF:53:1,2014-10-01T17:30:00Z,26.6493,-81.8810,2.11,2.9,235.1,-9999.0,'1111122,1111122,1111122' 
SCCF RECON,ioos:station:SCCF:53:1,2014-10-01T17:45:00Z,26.6493,-81.8810,2.11,4.4,261.7,-9999.0,'1111122,1111122,1111122' 
SCCF RECON,ioos:station:SCCF:53:1,2014-10-01T18:00:00Z,26.6493,-81.8810,2.11,5.4,278.0,-9999.0,'1111122,1111122,1111122' 
SCCF RECON,ioos:station:SCCF:53:1,2014-10-01T18:15:00Z,26.6493,-81.8810,2.11,6.3,267.1,-9999.0,'1111122,1111122,1111122' 
SCCF RECON,ioos:station:SCCF:53:1,2014-10-01T18:30:00Z,26.6493,-81.8810,2.11,5.3,264.6,-9999.0,'1111122,1111122,1111122' 
SCCF RECON,ioos:station:SCCF:53:1,2014-10-01T18:45:00Z,26.6493,-81.8810,2.11,5.3,262.0,-9999.0,'1111122,1111122,1111122' 
SCCF RECON,ioos:station:SCCF:53:1,2014-10-01T19:00:00Z,26.6493,-81.8810,2.11,4.2,270.0,-9999.0,'1111122,1111122,1111122' 
SCCF RECON,ioos:station:SCCF:53:1,2014-10-01T19:15:00Z,26.6493,-81.8810,2.11,5.6,258.8,-9999.0,'1111122,1111122,1111122' 
SCCF RECON,ioos:station:SCCF:53:1,2014-10-01T19:30:00Z,26.6493,-81.8810,2.11,6.8,268.3,-9999.0,'1111122,1111122,1111122' 
SCCF RECON,ioos:station:SCCF:53:1,2014-10-01T19:45:00Z,26.6493,-81.8810,2.11,4.2,258.4,-9999.0,'1111122,1111122,1111122' 
SCCF RECON,ioos:station:SCCF:53:1,2014-10-01T20:00:00Z,26.6493,-81.8810,2.11,5.8,290.2,-9999.0,'1111122,1111122,1111122' 
SCCF RECON,ioos:station:SCCF:53:1,2014-10-01T20:15:00Z,26.6493,-81.8810,2.11,5.2,295.2,-9999.0,'1111122,1111122,1111122' 
SCCF RECON,ioos:station:SCCF:53:1,2014-10-01T20:30:00Z,26.6493,-81.8810,2.11,4.8,310.0,-9999.0,'1111122,1111122,1111122' 
SCCF RECON,ioos:station:SCCF:53:1,2014-10-01T20:45:00Z,26.6493,-81.8810,2.11,4.0,315.4,-9999.0,'1111122,1111122,1111122' 
SCCF RECON,ioos:station:SCCF:53:1,2014-10-01T21:00:00Z,26.6493,-81.8810,2.11,3.1,290.4,-9999.0,'1111122,1111122,1111122' 
SCCF RECON,ioos:station:SCCF:53:1,2014-10-01T21:15:00Z,26.6493,-81.8810,2.11,3.1,294.3,-9999.0,'1111122,1111122,1111122' 
SCCF RECON,ioos:station:SCCF:53:1,2014-10-01T21:30:00Z,26.6493,-81.8810,2.11,3.8,294.0,-9999.0,'1111122,1111122,1111122' 
SCCF RECON,ioos:station:SCCF:53:1,2014-10-01T21:45:00Z,26.6493,-81.8810,2.11,4.2,281.9,-9999.0,'1111122,1111122,1111122' 
SCCF RECON,ioos:station:SCCF:53:1,2014-10-01T22:00:00Z,26.6493,-81.8810,2.11,4.2,275.9,-9999.0,'1111122,1111122,1111122' 
SCCF RECON,ioos:station:SCCF:53:1,2014-10-01T22:15:00Z,26.6493,-81.8810,2.11,2.9,260.6,-9999.0,'1111122,1111122,1111122' 
SCCF RECON,ioos:station:SCCF:53:1,2014-10-01T22:30:00Z,26.6493,-81.8810,2.11,3.3,256.2,-9999.0,'1111122,1111122,1111122' 
SCCF RECON,ioos:station:SCCF:53:1,2014-10-01T22:45:00Z,26.6493,-81.8810,2.11,2.7,261.6,-9999.0,'1111122,1111122,1111122' 
SCCF RECON,ioos:station:SCCF:53:1,2014-10-01T23:00:00Z,26.6493,-81.8810,2.11,3.0,246.1,-9999.0,'1111122,1111122,1111122' 
SCCF RECON,ioos:station:SCCF:53:1,2014-10-01T23:15:00Z,26.6493,-81.8810,2.11,2.8,254.7,-9999.0,'1111122,1111122,1111122' 
SCCF RECON,ioos:station:SCCF:53:1,2014-10-01T23:30:00Z,26.6493,-81.8810,2.11,2.3,271.4,-9999.0,'1111122,1111122,1111122' 
SCCF RECON,ioos:station:SCCF:53:1,2014-10-01T23:45:00Z,26.6493,-81.8810,2.11,3.1,261.5,-9999.0,'1111122,1111122,1111122' 
SCCF RECON,ioos:station:SCCF:53:1,2014-10-02T00:00:00Z,26.6493,-81.8810,2.11,3.4,265.8,-9999.0,'1111122,1111122,1111122' 
SCCF RECON,ioos:station:SCCF:53:1,2014-10-02T00:15:00Z,26.6493,-81.8810,2.11,3.6,269.3,-9999.0,'1111122,1111122,1111122' 
SCCF RECON,ioos:station:SCCF:53:1,2014-10-02T00:30:00Z,26.6493,-81.8810,2.11,2.9,265.3,-9999.0,'1111122,1111122,1111122' 
SCCF RECON,ioos:station:SCCF:53:1,2014-10-02T00:45:00Z,26.6493,-81.8810,2.11,3.7,259.9,-9999.0,'1111122,1111122,1111122' 
SCCF RECON,ioos:station:SCCF:53:1,2014-10-02T01:00:00Z,26.6493,-81.8810,2.11,2.1,254.5,-9999.0,'1111122,1111122,1111122' 
SCCF RECON,ioos:station:SCCF:53:1,2014-10-02T01:15:00Z,26.6493,-81.8810,2.11,3.3,268.4,-9999.0,'1111122,1111122,1111122' 
SCCF RECON,ioos:station:SCCF:53:1,2014-10-02T01:30:00Z,26.6493,-81.8810,2.11,3.1,260.5,-9999.0,'1111122,1111122,1111122' 
SCCF RECON,ioos:station:SCCF:53:1,2014-10-02T01:45:00Z,26.6493,-81.8810,2.11,3.1,256.2,-9999.0,'1111122,1111122,1111122' 
SCCF RECON,ioos:station:SCCF:53:1,2014-10-02T02:00:00Z,26.6493,-81.8810,2.11,2.6,275.9,-9999.0,'1111122,1111122,1111122' 
SCCF RECON,ioos:station:SCCF:53:1,2014-10-02T02:15:00Z,26.6493,-81.8810,2.11,2.7,278.4,-9999.0,'1111122,1111122,1111122' 
SCCF RECON,ioos:station:SCCF:53:1,2014-10-02T02:30:00Z,26.6493,-81.8810,2.11,2.7,271.5,-9999.0,'1111122,1111122,1111122' 
SCCF RECON,ioos:station:SCCF:53:1,2014-10-02T02:45:00Z,26.6493,-81.8810,2.11,2.3,269.9,-9999.0,'1111122,1111122,1111122' 
SCCF RECON,ioos:station:SCCF:53:1,2014-10-02T03:00:00Z,26.6493,-81.8810,2.11,1.6,283.4,-9999.0,'1111122,1111122,1111122' 
SCCF RECON,ioos:station:SCCF:53:1,2014-10-02T03:15:00Z,26.6493,-81.8810,2.11,0.9,283.0,-9999.0,'1111122,1111122,1111122' 
SCCF RECON,ioos:station:SCCF:53:1,2014-10-02T03:30:00Z,26.6493,-81.8810,2.11,1.6,297.7,-9999.0,'1111122,1111122,1111122' 
SCCF RECON,ioos:station:SCCF:53:1,2014-10-02T03:45:00Z,26.6493,-81.8810,2.11,0.5,303.7,-9999.0,'1111122,1111122,1111122' 
SCCF RECON,ioos:station:SCCF:53:1,2014-10-02T04:00:00Z,26.6493,-81.8810,2.11,0.9,346.3,-9999.0,'1111122,1111122,1111122' 
SCCF RECON,ioos:station:SCCF:53:1,2014-10-02T04:15:00Z,26.6493,-81.8810,2.11,1.2,321.3,-9999.0,'1111122,1111122,1111122' 
SCCF RECON,ioos:station:SCCF:53:1,2014-10-02T04:30:00Z,26.6493,-81.8810,2.11,1.2,336.0,-9999.0,'1111122,1111122,1111122' 
SCCF RECON,ioos:station:SCCF:53:1,2014-10-02T04:45:00Z,26.6493,-81.8810,2.11,1.8,3.0,-9999.0,'1111122,1111122,1111122' 
SCCF RECON,ioos:station:SCCF:53:1,2014-10-02T05:00:00Z,26.6493,-81.8810,2.11,1.8,353.2,-9999.0,'1111122,1111122,1111122' 
SCCF RECON,ioos:station:SCCF:53:1,2014-10-02T05:15:00Z,26.6493,-81.8810,2.11,2.6,354.9,-9999.0,'1111122,1111122,1111122' 
SCCF RECON,ioos:station:SCCF:53:1,2014-10-02T05:30:00Z,26.6493,-81.8810,2.11,2.8,8.4,-9999.0,'1111122,1111122,1111122' 
SCCF RECON,ioos:station:SCCF:53:1,2014-10-02T05:45:00Z,26.6493,-81.8810,2.11,1.4,9.7,-9999.0,'1111122,1111122,1111122' 
SCCF RECON,ioos:station:SCCF:53:1,2014-10-02T06:00:00Z,26.6493,-81.8810,2.11,1.6,19.4,-9999.0,'1111122,1111122,1111122' 
SCCF RECON,ioos:station:SCCF:53:1,2014-10-02T06:15:00Z,26.6493,-81.8810,2.11,1.0,348.4,-9999.0,'1111122,1111122,1111122' 
SCCF RECON,ioos:station:SCCF:53:1,2014-10-02T06:30:00Z,26.6493,-81.8810,2.11,0.8,323.7,-9999.0,'1111122,1111122,1111122' 
SCCF RECON,ioos:station:SCCF:53:1,2014-10-02T06:45:00Z,26.6493,-81.8810,2.11,0.6,332.4,-9999.0,'1111122,1111122,1111122' 
SCCF RECON,ioos:station:SCCF:53:1,2014-10-02T07:00:00Z,26.6493,-81.8810,2.11,0.8,348.3,-9999.0,'1111122,1111122,1111122' 
SCCF RECON,ioos:station:SCCF:53:1,2014-10-02T07:15:00Z,26.6493,-81.8810,2.11,0.6,329.1,-9999.0,'1111122,1111122,1111122' 
SCCF RECON,ioos:station:SCCF:53:1,2014-10-02T07:30:00Z,26.6493,-81.8810,2.11,-9999.0,274.2,-9999.0,'1111122,1111122,1111122' 
SCCF RECON,ioos:station:SCCF:53:1,2014-10-02T07:45:00Z,26.6493,-81.8810,2.11,1.1,140.0,-9999.0,'1111122,1111122,1111122' 
SCCF RECON,ioos:station:SCCF:53:1,2014-10-02T08:00:00Z,26.6493,-81.8810,2.11,1.4,149.6,-9999.0,'1111122,1111122,1111122' 
SCCF RECON,ioos:station:SCCF:53:1,2014-10-02T08:15:00Z,26.6493,-81.8810,2.11,0.8,137.1,-9999.0,'1111122,1111122,1111122' 
SCCF RECON,ioos:station:SCCF:53:1,2014-10-02T08:30:00Z,26.6493,-81.8810,2.11,0.4,130.9,-9999.0,'1111122,1111122,1111122' 
SCCF RECON,ioos:station:SCCF:53:1,2014-10-02T08:45:00Z,26.6493,-81.8810,2.11,0.5,350.8,-9999.0,'1111122,1111122,1111122' 
SCCF RECON,ioos:station:SCCF:53:1,2014-10-02T09:00:00Z,26.6493,-81.8810,2.11,1.2,354.8,-9999.0,'1111122,1111122,1111122' 
SCCF RECON,ioos:station:SCCF:53:1,2014-10-02T09:15:00Z,26.6493,-81.8810,2.11,0.6,123.3,-9999.0,'1111122,1111122,1111122' 
SCCF RECON,ioos:station:SCCF:53:1,2014-10-02T09:30:00Z,26.6493,-81.8810,2.11,1.5,26.6,-9999.0,'1111122,1111122,1111122' 
SCCF RECON,ioos:station:SCCF:53:1,2014-10-02T09:45:00Z,26.6493,-81.8810,2.11,1.7,38.0,-9999.0,'1111122,1111122,1111122' 
SCCF RECON,ioos:station:SCCF:53:1,2014-10-02T10:00:00Z,26.6493,-81.8810,2.11,1.6,144.1,-9999.0,'1111122,1111122,1111122' 
SCCF RECON,ioos:station:SCCF:53:1,2014-10-02T10:15:00Z,26.6493,-81.8810,2.11,1.6,122.4,-9999.0,'1111122,1111122,1111122' 
SCCF RECON,ioos:station:SCCF:53:1,2014-10-02T10:30:00Z,26.6493,-81.8810,2.11,1.2,56.6,-9999.0,'1111122,1111122,1111122' 
SCCF RECON,ioos:station:SCCF:53:1,2014-10-02T10:45:00Z,26.6493,-81.8810,2.11,1.4,38.9,-9999.0,'1111122,1111122,1111122' 
SCCF RECON,ioos:station:SCCF:53:1,2014-10-02T11:00:00Z,26.6493,-81.8810,2.11,1.1,25.7,-9999.0,'1111122,1111122,1111122' 
SCCF RECON,ioos:station:SCCF:53:1,2014-10-02T11:15:00Z,26.6493,-81.8810,2.11,1.2,21.9,-9999.0,'1111122,1111122,1111122' 
SCCF RECON,ioos:station:SCCF:53:1,2014-10-02T11:30:00Z,26.6493,-81.8810,2.11,1.1,7.7,-9999.0,'1111122,1111122,1111122' 
SCCF RECON,ioos:station:SCCF:53:1,2014-10-02T11:45:00Z,26.6493,-81.8810,2.11,2.0,40.7,-9999.0,'1111122,1111122,1111122' 
SCCF RECON,ioos:station:SCCF:53:1,2014-10-02T12:00:00Z,26.6493,-81.8810,2.11,1.2,53.1,-9999.0,'1111122,1111122,1111122' 
SCCF RECON,ioos:station:SCCF:53:1,2014-10-02T12:15:00Z,26.6493,-81.8810,2.11,0.8,59.1,-9999.0,'1111122,1111122,1111122' 
SCCF RECON,ioos:station:SCCF:53:1,2014-10-02T12:30:00Z,26.6493,-81.8810,2.11,0.6,56.0,-9999.0,'1111122,1111122,1111122' 
SCCF RECON,ioos:station:SCCF:53:1,2014-10-02T12:45:00Z,26.6493,-81.8810,2.11,1.0,50.6,-9999.0,'1111122,1111122,1111122' 
SCCF RECON,ioos:station:SCCF:53:1,2014-10-02T13:00:00Z,26.6493,-81.8810,2.11,1.8,51.7,-9999.0,'1111122,1111122,1111122' 
SCCF RECON,ioos:station:SCCF:53:1,2014-10-02T13:15:00Z,26.6493,-81.8810,2.11,1.3,40.3,-9999.0,'1111122,1111122,1111122' 
SCCF RECON,ioos:station:SCCF:53:1,2014-10-02T13:30:00Z,26.6493,-81.8810,2.11,0.6,57.1,-9999.0,'1111122,1111122,1111122' 
SCCF RECON,ioos:station:SCCF:53:1,2014-10-02T13:45:00Z,26.6493,-81.8810,2.11,1.0,40.1,-9999.0,'1111122,1111122,1111122' 
SCCF RECON,ioos:station:SCCF:53:1,2014-10-02T14:00:00Z,26.6493,-81.8810,2.11,1.4,100.9,-9999.0,'1111122,1111122,1111122' 
SCCF RECON,ioos:station:SCCF:53:1,2014-10-02T14:15:00Z,26.6493,-81.8810,2.11,-9999.0,160.5,-9999.0,'1111122,1111122,1111122' 
SCCF RECON,ioos:station:SCCF:53:1,2014-10-02T14:30:00Z,26.6493,-81.8810,2.11,0.2,200.1,-9999.0,'1111122,1111122,1111122' 
SCCF RECON,ioos:station:SCCF:53:1,2014-10-02T14:45:00Z,26.6493,-81.8810,2.11,0.4,217.3,-9999.0,'1111122,1111122,1111122' 
SCCF RECON,ioos:station:SCCF:53:1,2014-10-02T15:00:00Z,26.6493,-81.8810,2.11,0.5,177.8,-9999.0,'1111122,1111122,1111122' 
SCCF RECON,ioos:station:SCCF:53:1,2014-10-02T15:15:00Z,26.6493,-81.8810,2.11,0.9,166.3,-9999.0,'1111122,1111122,1111122' 
SCCF RECON,ioos:station:SCCF:53:1,2014-10-02T15:30:00Z,26.6493,-81.8810,2.11,0.4,190.8,-9999.0,'1111122,1111122,1111122' 
SCCF RECON,ioos:station:SCCF:53:1,2014-10-02T15:45:00Z,26.6493,-81.8810,2.11,1.3,205.4,-9999.0,'1111122,1111122,1111122' 
SCCF RECON,ioos:station:SCCF:53:1,2014-10-02T16:00:00Z,26.6493,-81.8810,2.11,1.3,203.9,-9999.0,'1111122,1111122,1111122' 
SCCF RECON,ioos:station:SCCF:53:1,2014-10-02T16:15:00Z,26.6493,-81.8810,2.11,1.4,277.8,-9999.0,'1111122,1111122,1111122' 
SCCF RECON,ioos:station:SCCF:53:1,2014-10-02T16:30:00Z,26.6493,-81.8810,2.11,1.7,306.3,-9999.0,'1111122,1111122,1111122' 
SCCF RECON,ioos:station:SCCF:53:1,2014-10-02T16:45:00Z,26.6493,-81.8810,2.11,1.1,304.9,-9999.0,'1111122,1111122,1111122' 
SCCF RECON,ioos:station:SCCF:53:1,2014-10-02T17:00:00Z,26.6493,-81.8810,2.11,2.7,277.0,-9999.0,'1111122,1111122,1111122' 
SCCF RECON,ioos:station:SCCF:53:1,2014-10-02T17:15:00Z,26.6493,-81.8810,2.11,2.4,294.6,-9999.0,'1111122,1111122,1111122' 
SCCF RECON,ioos:station:SCCF:53:1,2014-10-02T17:30:00Z,26.6493,-81.8810,2.11,2.7,304.3,-9999.0,'1111122,1111122,1111122' 
SCCF RECON,ioos:station:SCCF:53:1,2014-10-02T17:45:00Z,26.6493,-81.8810,2.11,4.3,269.3,-9999.0,'1111122,1111122,1111122' 
SCCF RECON,ioos:station:SCCF:53:1,2014-10-02T18:00:00Z,26.6493,-81.8810,2.11,1.8,311.1,-9999.0,'1111122,1111122,1111122' 
SCCF RECON,ioos:station:SCCF:53:1,2014-10-02T18:15:00Z,26.6493,-81.8810,2.11,1.8,297.4,-9999.0,'1111122,1111122,1111122' 
SCCF RECON,ioos:station:SCCF:53:1,2014-10-02T18:30:00Z,26.6493,-81.8810,2.11,3.4,274.2,-9999.0,'1111122,1111122,1111122' 
SCCF RECON,ioos:station:SCCF:53:1,2014-10-02T18:45:00Z,26.6493,-81.8810,2.11,3.3,269.4,-9999.0,'1111122,1111122,1111122' 
SCCF RECON,ioos:station:SCCF:53:1,2014-10-02T19:00:00Z,26.6493,-81.8810,2.11,2.1,292.2,-9999.0,'1111122,1111122,1111122' 
SCCF RECON,ioos:station:SCCF:53:1,2014-10-02T19:15:00Z,26.6493,-81.8810,2.11,2.9,278.3,-9999.0,'1111122,1111122,1111122' 
SCCF RECON,ioos:station:SCCF:53:1,2014-10-02T19:30:00Z,26.6493,-81.8810,2.11,3.0,292.7,-9999.0,'1111122,1111122,1111122' 
SCCF RECON,ioos:station:SCCF:53:1,2014-10-02T19:45:00Z,26.6493,-81.8810,2.11,5.2,270.8,-9999.0,'1111122,1111122,1111122' 
SCCF RECON,ioos:station:SCCF:53:1,2014-10-02T20:00:00Z,26.6493,-81.8810,2.11,3.6,262.7,-9999.0,'1111122,1111122,1111122' 
SCCF RECON,ioos:station:SCCF:53:1,2014-10-02T20:15:00Z,26.6493,-81.8810,2.11,3.2,276.8,-9999.0,'1111122,1111122,1111122' 
SCCF RECON,ioos:station:SCCF:53:1,2014-10-02T20:30:00Z,26.6493,-81.8810,2.11,4.2,268.4,-9999.0,'1111122,1111122,1111122' 
SCCF RECON,ioos:station:SCCF:53:1,2014-10-02T20:45:00Z,26.6493,-81.8810,2.11,3.9,265.5,-9999.0,'1111122,1111122,1111122' 
SCCF RECON,ioos:station:SCCF:53:1,2014-10-02T21:00:00Z,26.6493,-81.8810,2.11,3.1,295.5,-9999.0,'1111122,1111122,1111122' 
SCCF RECON,ioos:station:SCCF:53:1,2014-10-02T21:15:00Z,26.6493,-81.8810,2.11,4.3,275.5,-9999.0,'1111122,1111122,1111122' 
SCCF RECON,ioos:station:SCCF:53:1,2014-10-02T21:30:00Z,26.6493,-81.8810,2.11,2.8,282.4,-9999.0,'1111122,1111122,1111122' 
SCCF RECON,ioos:station:SCCF:53:1,2014-10-02T21:45:00Z,26.6493,-81.8810,2.11,4.9,286.0,-9999.0,'1111122,1111122,1111122' 
SCCF RECON,ioos:station:SCCF:53:1,2014-10-02T22:00:00Z,26.6493,-81.8810,2.11,3.7,285.0,-9999.0,'1111122,1111122,1111122' 
SCCF RECON,ioos:station:SCCF:53:1,2014-10-02T22:15:00Z,26.6493,-81.8810,2.11,3.7,290.4,-9999.0,'1111122,1111122,1111122' 
SCCF RECON,ioos:station:SCCF:53:1,2014-10-02T22:30:00Z,26.6493,-81.8810,2.11,4.5,288.4,-9999.0,'1111122,1111122,1111122' 
SCCF RECON,ioos:station:SCCF:53:1,2014-10-02T22:45:00Z,26.6493,-81.8810,2.11,3.8,299.4,-9999.0,'1111122,1111122,1111122' 
SCCF RECON,ioos:station:SCCF:53:1,2014-10-02T23:00:00Z,26.6493,-81.8810,2.11,3.0,290.2,-9999.0,'1111122,1111122,1111122' 
SCCF RECON,ioos:station:SCCF:53:1,2014-10-02T23:15:00Z,26.6493,-81.8810,2.11,4.2,294.1,-9999.0,'1111122,1111122,1111122' 
SCCF RECON,ioos:station:SCCF:53:1,2014-10-02T23:30:00Z,26.6493,-81.8810,2.11,3.7,281.6,-9999.0,'1111122,1111122,1111122' 
SCCF RECON,ioos:station:SCCF:53:1,2014-10-02T23:45:00Z,26.6493,-81.8810,2.11,3.6,275.5,-9999.0,'1111122,1111122,1111122' 
SCCF RECON,ioos:station:SCCF:53:1,2014-10-03T00:00:00Z,26.6493,-81.8810,2.11,3.6,276.7,-9999.0,'1111122,1111122,1111122' 
SCCF RECON,ioos:station:SCCF:53:1,2014-10-03T00:15:00Z,26.6493,-81.8810,2.11,2.6,265.8,-9999.0,'1111122,1111122,1111122' 
SCCF RECON,ioos:station:SCCF:53:1,2014-10-03T00:30:00Z,26.6493,-81.8810,2.11,2.5,252.0,-9999.0,'1111122,1111122,1111122' 